When you browse on this site, cookies collect data to enhance your experience and personalize the content and advertising you see.
Visit our Privacy Policy to learn more. By continuing to use the site, you agree to this use of cookies and data.
  • In Austria
  • List of Countries
  • For 7 days
  • Water Temperature
  • Satellite Maps
  • Weather Map
  • News
  • Weather Widgets
  • user-avatar
    Login

    Hourly Weather Bershad

    Today, 22 April, Monday

    Time Temperature Precipitation Wind Pressure Humidity
    00:00 +8°C° 0 mm 2 mps 748 mmHg 53%
    01:00 +8°C° 0 mm 2 mps 748 mmHg 55%
    02:00 +7°C° 0 mm 2 mps 748 mmHg 59%
    03:00 +6°C° 0 mm 2 mps 748 mmHg 59%
    04:00 +6°C° 0 mm 2 mps 749 mmHg 60%
    05:00 +6°C° 0 mm 2 mps 749 mmHg 61%
    06:00 +7°C° 0 mm 2 mps 749 mmHg 57%
    07:00 +9°C° 0 mm 3 mps 749 mmHg 52%
    08:00 +10°C° 0 mm 3 mps 750 mmHg 46%
    09:00 +12°C° 0 mm 4 mps 750 mmHg 43%
    10:00 +13°C° 0 mm 4 mps 750 mmHg 39%
    11:00 +14°C° 0 mm 5 mps 750 mmHg 36%
    12:00 +14°C° 0 mm 5 mps 750 mmHg 36%
    13:00 +14°C° 0 mm 5 mps 750 mmHg 37%
    14:00 +14°C° 0 mm 4 mps 750 mmHg 38%
    15:00 +14°C° 0 mm 4 mps 750 mmHg 38%
    16:00 +14°C° 0 mm 4 mps 750 mmHg 39%
    17:00 +14°C° 0 mm 4 mps 750 mmHg 40%
    18:00 +13°C° 0 mm 3 mps 750 mmHg 44%
    19:00 +13°C° 0 mm 2 mps 750 mmHg 48%
    20:00 +10°C° 0 mm 2 mps 750 mmHg 52%
    21:00 +10°C° 0 mm 2 mps 751 mmHg 53%
    22:00 +9°C° 0 mm 2 mps 751 mmHg 53%
    23:00 +9°C° 0 mm 2 mps 751 mmHg 54%

    Tomorrow, 23 April, Tuesday

    Time Temperature Precipitation Wind Pressure Humidity
    00:00 +9°C° 0 mm 2 mps 751 mmHg 55%
    01:00 +8°C° 0 mm 2 mps 751 mmHg 57%
    02:00 +8°C° 0 mm 2 mps 752 mmHg 59%
    03:00 +7°C° 0 mm 2 mps 752 mmHg 60%
    04:00 +7°C° 0 mm 2 mps 752 mmHg 62%
    05:00 +7°C° 0 mm 2 mps 752 mmHg 63%
    06:00 +9°C° 0 mm 2 mps 752 mmHg 60%
    07:00 +10°C° 0 mm 2 mps 752 mmHg 57%
    08:00 +12°C° 0 mm 3 mps 753 mmHg 53%
    09:00 +13°C° 0 mm 4 mps 753 mmHg 47%
    10:00 +14°C° 0 mm 4 mps 753 mmHg 41%
    11:00 +16°C° 0 mm 5 mps 753 mmHg 35%
    12:00 +16°C° 0 mm 5 mps 753 mmHg 36%
    13:00 +16°C° 0 mm 5 mps 753 mmHg 36%
    14:00 +16°C° 0 mm 5 mps 753 mmHg 36%
    15:00 +16°C° 0 mm 5 mps 753 mmHg 37%
    16:00 +17°C° 0 mm 4 mps 752 mmHg 39%
    17:00 +15°C° 0 mm 4 mps 752 mmHg 40%
    18:00 +14°C° 0 mm 4 mps 752 mmHg 43%
    19:00 +13°C° 0 mm 3 mps 752 mmHg 47%
    20:00 +12°C° 0 mm 3 mps 752 mmHg 51%
    21:00 +12°C° 0 mm 2 mps 752 mmHg 53%
    22:00 +10°C° 0 mm 2 mps 752 mmHg 56%
    23:00 +9°C° 0 mm 2 mps 753 mmHg 59%

    Day after tomorrow, 24 April, Wednesday

    Time Temperature Precipitation Wind Pressure Humidity
    00:00 +9°C° 0 mm 2 mps 753 mmHg 60%
    01:00 +8°C° 0 mm 2 mps 753 mmHg 61%
    02:00 +8°C° 0 mm 2 mps 753 mmHg 62%
    03:00 +7°C° 0 mm 2 mps 753 mmHg 63%
    04:00 +7°C° 0 mm 2 mps 753 mmHg 63%
    05:00 +7°C° 0 mm 2 mps 752 mmHg 64%
    06:00 +8°C° 0 mm 3 mps 753 mmHg 60%
    07:00 +10°C° 0 mm 4 mps 753 mmHg 56%
    08:00 +12°C° 0 mm 4 mps 753 mmHg 52%
    09:00 +13°C° 0 mm 5 mps 753 mmHg 49%
    10:00 +14°C° 0 mm 5 mps 753 mmHg 45%
    11:00 +16°C° 0 mm 6 mps 753 mmHg 41%
    12:00 +16°C° 0 mm 6 mps 753 mmHg 40%
    13:00 +17°C° 0 mm 6 mps 753 mmHg 39%
    14:00 +17°C° 0 mm 5 mps 753 mmHg 39%
    15:00 +17°C° 0 mm 5 mps 752 mmHg 40%
    16:00 +17°C° 0 mm 5 mps 752 mmHg 41%
    17:00 +17°C° 0 mm 4 mps 752 mmHg 43%
    18:00 +15°C° 0 mm 4 mps 752 mmHg 48%
    19:00 +13°C° 0 mm 3 mps 752 mmHg 53%
    20:00 +13°C° 0 mm 2 mps 752 mmHg 59%
    21:00 +12°C° 0 mm 2 mps 752 mmHg 60%
    22:00 +10°C° 0 mm 2 mps 752 mmHg 61%
    23:00 +10°C° 0 mm 2 mps 752 mmHg 63%

    25 April, Thursday

    Time Temperature Precipitation Wind Pressure Humidity
    00:00 +9°C° 0 mm 2 mps 752 mmHg 63%
    01:00 +9°C° 0 mm 2 mps 752 mmHg 64%
    02:00 +9°C° 0 mm 2 mps 752 mmHg 65%
    03:00 +8°C° 0 mm 2 mps 752 mmHg 66%
    04:00 +8°C° 0 mm 2 mps 752 mmHg 67%
    05:00 +8°C° 0 mm 2 mps 752 mmHg 69%
    06:00 +9°C° 0 mm 2 mps 752 mmHg 65%
    07:00 +11°C° 0 mm 3 mps 752 mmHg 61%
    08:00 +13°C° 0 mm 3 mps 753 mmHg 57%
    09:00 +14°C° 0 mm 4 mps 753 mmHg 51%
    10:00 +17°C° 0 mm 4 mps 753 mmHg 46%
    11:00 +17°C° 0 mm 5 mps 752 mmHg 41%
    12:00 +19°C° 0 mm 5 mps 752 mmHg 40%
    13:00 +20°C° 0 mm 5 mps 752 mmHg 39%
    14:00 +20°C° 0 mm 5 mps 752 mmHg 38%
    15:00 +20°C° 0 mm 5 mps 751 mmHg 39%
    16:00 +20°C° 0 mm 5 mps 751 mmHg 40%
    17:00 +19°C° 0 mm 4 mps 751 mmHg 42%
    18:00 +18°C° 0 mm 4 mps 751 mmHg 46%
    19:00 +15°C° 0 mm 4 mps 751 mmHg 50%
    20:00 +13°C° 0 mm 3 mps 751 mmHg 54%
    21:00 +12°C° 0 mm 3 mps 751 mmHg 54%
    22:00 +12°C° 0 mm 3 mps 751 mmHg 54%
    23:00 +12°C° 0 mm 2 mps 751 mmHg 54%

    26 April, Friday

    Time Temperature Precipitation Wind Pressure Humidity
    00:00 +10°C° 0 mm 2 mps 751 mmHg 57%
    01:00 +10°C° 0 mm 2 mps 750 mmHg 61%
    02:00 +9°C° 0 mm 2 mps 750 mmHg 64%
    03:00 +9°C° 0 mm 2 mps 750 mmHg 67%
    04:00 +8°C° 0 mm 2 mps 750 mmHg 70%
    05:00 +8°C° 0 mm 2 mps 750 mmHg 73%
    06:00 +10°C° 0 mm 2 mps 750 mmHg 68%
    07:00 +11°C° 0 mm 3 mps 750 mmHg 62%
    08:00 +13°C° 0 mm 3 mps 750 mmHg 57%
    09:00 +15°C° 0 mm 4 mps 750 mmHg 50%
    10:00 +17°C° 0 mm 4 mps 750 mmHg 44%
    11:00 +19°C° 0 mm 5 mps 750 mmHg 37%
    12:00 +20°C° 0 mm 5 mps 749 mmHg 36%
    13:00 +20°C° 0 mm 5 mps 749 mmHg 36%
    14:00 +21°C° 0 mm 5 mps 749 mmHg 36%
    15:00 +21°C° 0 mm 5 mps 748 mmHg 38%
    16:00 +20°C° 0 mm 5 mps 748 mmHg 39%
    17:00 +20°C° 0 mm 4 mps 748 mmHg 41%
    18:00 +19°C° 0 mm 4 mps 748 mmHg 46%
    19:00 +17°C° 0 mm 3 mps 748 mmHg 52%
    20:00 +14°C° 0 mm 3 mps 748 mmHg 57%
    21:00 +14°C° 0 mm 3 mps 747 mmHg 58%
    22:00 +13°C° 0 mm 3 mps 747 mmHg 59%
    23:00 +12°C° 0 mm 3 mps 747 mmHg 60%

    27 April, Saturday

    Time Temperature Precipitation Wind Pressure Humidity
    00:00 +12°C° 0 mm 3 mps 747 mmHg 62%
    01:00 +11°C° 0 mm 3 mps 747 mmHg 63%
    02:00 +11°C° 0 mm 3 mps 746 mmHg 64%
    03:00 +10°C° 0 mm 3 mps 746 mmHg 65%
    04:00 +10°C° 0 mm 3 mps 746 mmHg 66%
    05:00 +9°C° 0 mm 3 mps 746 mmHg 67%
    06:00 +11°C° 0 mm 3 mps 746 mmHg 63%
    07:00 +13°C° 0 mm 4 mps 746 mmHg 58%
    08:00 +14°C° 0 mm 5 mps 746 mmHg 53%
    09:00 +16°C° 0 mm 5 mps 746 mmHg 49%
    10:00 +17°C° 0 mm 6 mps 746 mmHg 44%
    11:00 +20°C° 0 mm 6 mps 746 mmHg 40%
    12:00 +20°C° 0 mm 6 mps 745 mmHg 40%
    13:00 +21°C° 0 mm 6 mps 745 mmHg 40%
    14:00 +22°C° 0 mm 6 mps 745 mmHg 39%
    15:00 +22°C° 0 mm 6 mps 744 mmHg 42%
    16:00 +21°C° 0 mm 5 mps 744 mmHg 44%
    17:00 +21°C° 0 mm 5 mps 744 mmHg 46%
    18:00 +20°C° 0 mm 5 mps 744 mmHg 52%
    19:00 +18°C° 0 mm 4 mps 744 mmHg 57%
    20:00 +15°C° 0 mm 4 mps 744 mmHg 63%
    21:00 +15°C° 0 mm 4 mps 744 mmHg 64%
    22:00 +14°C° 0 mm 4 mps 744 mmHg 64%
    23:00 +13°C° 0 mm 4 mps 744 mmHg 65%
    Show more